Find OPS 7613 P/L 5

NORAD ID: 4247 Int'l Des: 1969-082 Owner: NRO/NRL Country: US operational
LEOCIRCULAR

实时位置

正在加载3D地球...

关于 OPS 7613 P/L 5

正在加载描述...

即将过境

Passes for default location (London). Set your location on the main map for personalized predictions.

高度历史

Loading altitude history...

两行轨道根数

1 04247U 69082F 26105.30257269 -.00000003 00000-0 36260-4 0 9995
2 04247 70.0145 236.8049 0022055 216.8613 143.0978 13.95982222877635
Epoch: Apr 15, 2026 • Age: 6 hours

当前状态

高度 897.7 km
速度 7.41 km/s
星下点 -11.95°S, 16.82°E
类型 other

Most Searched